Theta_e
314 313 314 314 312 312 314 315 315 317 317 318 318 317 313 312 311 311 309 307 307 309
316 315 314 316 316 315 314 318 318 318 317 317 316 315 314 313 314 308 307 307 307 307
316 316 316 315 315 316 316 317 318 317 316 315 313 313 311 312 311 308 308 309 308 308
316 316 315 316 316 316 314 313 313 313 313 312 311 310 309 309 313 311 308 306 307 309
316 316 315 314 313 313 312 312 313 311 311 311 311 310 307 308 309 307 306 306 308 309
315 313 312 312 312 314 313 311 310 309 309 309 309 305 305 305 306 308 308 307 305 306
313 311 313 311 312 313 312 308 307 307 308 307 305 304 304 304 305 306 306 304 305 305
314 314 314 312 310 308 306 306 306 306 307 304 304 304 301 301 300 301 301 302 304 304
315 312 308 306 305 303 302 303 303 304 304 302 304 302 303 302 297 298 299 299 300 302
308 305 303 303 301 300 300 300 300 301 301 300 299 300 300 302 297 297 296 296 296 299
304 303 303 301 300 298 298 298 298 299 299 299 300 300 299 299 295 295 295 295 296 296
304 302 301 299 298 299 299 298 298 299 298 298 297 299 298 296 294 294 294 296 297 300
303 301 300 299 299 298 298 297 296 298 298 301 296 298 297 296 294 292 293 295 297 301
302 300 300 298 298 297 293 292 292 296 295 295 296 295 297 297 293 292 293 295 296 296
Wind_Speed
5 4 4 5 4 3 2 1 3 5 6 6 6 5 3 3 3 3 4 7 6 3
7 7 6 6 4 2 1 1 5 5 5 6 6 6 7 4 5 4 4 5 6 3
7 7 6 5 5 5 4 4 6 6 7 7 6 6 6 6 4 5 4 4 7 5
6 6 5 6 6 6 5 6 6 5 6 6 6 6 6 7 6 6 6 6 6 7
5 6 6 6 6 5 6 5 4 5 5 5 5 5 5 5 5 6 7 6 8 9
9 8 6 5 4 5 4 5 4 5 5 6 5 5 5 5 5 5 6 7 7 7
7 6 8 3 6 5 4 5 4 5 5 5 6 6 6 6 7 7 7 6 6 6
7 6 5 5 6 5 5 4 5 5 5 5 5 4 6 6 6 6 7 7 6 6
6 6 7 6 6 6 6 5 5 4 4 4 2 5 8 7 5 6 6 6 7 7
9 8 6 6 6 5 4 3 4 3 2 3 0 5 7 10 5 5 6 6 6 7
8 7 6 5 5 3 2 3 2 3 3 2 2 5 7 9 6 5 6 6 7 5
8 7 6 5 4 2 3 3 2 2 4 4 2 6 7 6 6 5 6 6 6 6
6 7 6 4 3 2 3 3 4 4 4 3 1 5 6 4 3 5 5 6 6 9
6 7 6 4 2 4 4 5 6 6 3 3 2 4 7 5 3 3 4 4 6 6
Wind_Direction
120 110 108 125 136 131 122 168 355 360 358 344 353 324 350 331 339 357 12 1 354 323
138 128 125 117 118 109 59 27 25 17 3 3 11 0 358 353 335 19 359 355 351 334
159 150 150 123 104 95 65 47 40 30 26 26 21 7 6 354 359 18 350 356 357 340
163 160 109 99 88 81 69 49 42 34 31 16 6 0 4 351 17 7 353 349 351 332
139 98 98 100 104 87 80 63 53 27 30 8 1 7 28 13 358 0 351 343 346 340
113 117 117 117 100 109 77 62 26 33 23 7 9 25 15 17 352 349 347 350 335 319
114 118 109 109 89 70 63 59 29 32 37 26 47 29 4 354 341 346 344 342 326 328
129 113 90 75 78 66 54 42 35 33 44 51 55 23 4 350 342 342 332 346 342 344
119 94 86 95 95 77 46 30 30 36 52 71 58 1 6 6 349 338 354 349 337 333
112 113 124 111 86 70 60 19 19 11 59 121 135 22 12 358 2 360 355 340 327 321
119 119 112 103 91 71 45 34 21 21 49 111 39 17 13 2 1 358 343 334 328 328
128 126 122 95 79 63 50 20 360 32 54 72 9 0 2 8 357 342 327 320 320 325
126 125 117 112 99 61 51 22 0 75 75 81 346 307 355 7 347 343 334 325 310 315
143 126 128 108 86 77 60 55 40 69 41 4 282 319 339 7 352 325 323 316 322 317